iso_date,epoch_date,Year,Hour,Min,DOY,POS_DOY,Lat,Lon,BP,Ts,Ta,has_bp,has_ts,has_ta,BuoyID,Buoy_Type,Buoy_Owner,Logistics,Hemisphere
2015-09-12T06:00:00Z,1442037600,2015,6,0,255.25,255.25,88.3316,-123.9058,1000.9,-0.4,-3.2,yes,yes,yes,300234062789420,ICEB,AWI-USIABP,unknown,North
2015-09-12T07:00:28Z,1442041229,2015,7,0,255.292,255.292,88.3306,-123.8716,1001.4,-0.3,-3.3,yes,yes,yes,300234062789420,ICEB,AWI-USIABP,unknown,North
2015-09-12T07:59:31Z,1442044771,2015,8,0,255.333,255.333,88.3298,-123.8288,1001.8,-0.3,-2.6,yes,yes,yes,300234062789420,ICEB,AWI-USIABP,unknown,North
2015-09-12T09:00:00Z,1442048400,2015,9,0,255.375,255.375,88.3292,-123.7684,1002.3,-0.3,-1.1,yes,yes,yes,300234062789420,ICEB,AWI-USIABP,unknown,North
2015-09-12T10:00:28Z,1442052029,2015,10,0,255.417,255.417,88.3282,-123.687,1002.8,-0.3,0.1,yes,yes,yes,300234062789420,ICEB,AWI-USIABP,unknown,North
2015-09-12T10:59:31Z,1442055571,2015,11,0,255.458,255.458,88.3264,-123.5856,1003.0,-0.2,0.3,yes,yes,yes,300234062789420,ICEB,AWI-USIABP,unknown,North
2015-09-12T12:00:00Z,1442059200,2015,12,0,255.5,255.5,88.324,-123.4766,1003.1,-0.2,0.2,yes,yes,yes,300234062789420,ICEB,AWI-USIABP,unknown,North
2015-09-12T13:00:28Z,1442062829,2015,13,0,255.542,255.542,88.3206,-123.365,1003.3,-0.2,0.1,yes,yes,yes,300234062789420,ICEB,AWI-USIABP,unknown,North
2015-09-12T14:00:57Z,1442066458,2015,14,1,255.584,255.584,88.3168,-123.2616,1003.4,-0.2,0.2,yes,yes,yes,300234062789420,ICEB,AWI-USIABP,unknown,North
2015-09-12T15:00:00Z,1442070000,2015,15,0,255.625,255.625,88.3126,-123.1706,1003.3,-0.2,0.1,yes,yes,yes,300234062789420,ICEB,AWI-USIABP,unknown,North
2015-09-12T16:00:28Z,1442073629,2015,16,0,255.667,255.667,88.3082,-123.1094,1003.2,-0.2,0.1,yes,yes,yes,300234062789420,ICEB,AWI-USIABP,unknown,North
2015-09-12T16:59:31Z,1442077171,2015,17,0,255.708,255.708,88.3044,-123.1098,1003.6,-0.2,-3.9,yes,yes,yes,300234062789420,ICEB,AWI-USIABP,unknown,North
2015-09-12T18:00:00Z,1442080800,2015,18,0,255.75,255.75,88.3016,-123.1678,1004.1,-0.2,-5.0,yes,yes,yes,300234062789420,ICEB,AWI-USIABP,unknown,North
2015-09-12T19:00:28Z,1442084429,2015,19,0,255.792,255.792,88.2998,-123.2622,1004.5,-0.2,-6.0,yes,yes,yes,300234062789420,ICEB,AWI-USIABP,unknown,North
2015-09-12T19:59:31Z,1442087971,2015,20,0,255.833,255.833,88.2988,-123.3724,1004.8,-0.2,-9.2,yes,yes,yes,300234062789420,ICEB,AWI-USIABP,unknown,North
2015-09-12T21:00:00Z,1442091600,2015,21,0,255.875,255.875,88.2994,-123.4756,1005.6,-0.2,-14.2,yes,yes,yes,300234062789420,ICEB,AWI-USIABP,unknown,North
2015-09-12T22:00:28Z,1442095229,2015,22,0,255.917,255.917,88.3008,-123.556,1006.3,-0.2,-15.9,yes,yes,yes,300234062789420,ICEB,AWI-USIABP,unknown,North
2015-09-12T22:59:31Z,1442098771,2015,23,0,255.958,255.958,88.3026,-123.6054,1006.8,-0.2,-13.3,yes,yes,yes,300234062789420,ICEB,AWI-USIABP,unknown,North
2015-09-13T00:00:00Z,1442102400,2015,0,0,256.0,256.0,88.3034,-123.6326,1006.9,-0.2,-12.1,yes,yes,yes,300234062789420,ICEB,AWI-USIABP,unknown,North
2015-09-13T01:00:28Z,1442106029,2015,1,0,256.042,256.042,88.3036,-123.6344,1007.2,-0.2,-15.9,yes,yes,yes,300234062789420,ICEB,AWI-USIABP,unknown,North
2015-09-13T01:59:31Z,1442109571,2015,2,0,256.083,256.083,88.303,-123.6116,1007.5,-0.2,-15.8,yes,yes,yes,300234062789420,ICEB,AWI-USIABP,unknown,North
2015-09-13T03:00:00Z,1442113200,2015,3,0,256.125,256.125,88.3014,-123.5816,1007.9,-0.2,-16.6,yes,yes,yes,300234062789420,ICEB,AWI-USIABP,unknown,North
2015-09-13T04:00:28Z,1442116829,2015,4,0,256.167,256.167,88.2992,-123.5636,1008.2,-0.2,-16.5,yes,yes,yes,300234062789420,ICEB,AWI-USIABP,unknown,North
2015-09-13T05:00:57Z,1442120458,2015,5,1,256.209,256.209,88.2966,-123.5662,1008.4,-0.2,-15.5,yes,yes,yes,300234062789420,ICEB,AWI-USIABP,unknown,North
2015-09-13T06:01:26Z,1442124086,2015,6,1,256.251,256.251,88.2942,-123.5882,1008.6,-0.2,-16.1,yes,yes,yes,300234062789420,ICEB,AWI-USIABP,unknown,North
2015-09-13T07:00:28Z,1442127629,2015,7,0,256.292,256.292,88.2924,-123.6284,1009.2,-0.2,-15.2,yes,yes,yes,300234062789420,ICEB,AWI-USIABP,unknown,North
2015-09-13T07:59:31Z,1442131171,2015,8,0,256.333,256.333,88.291,-123.6792,1009.3,-0.2,-12.4,yes,yes,yes,300234062789420,ICEB,AWI-USIABP,unknown,North
2015-09-13T09:00:00Z,1442134800,2015,9,0,256.375,256.375,88.2902,-123.7286,1009.6,-0.2,-10.2,yes,yes,yes,300234062789420,ICEB,AWI-USIABP,unknown,North
2015-09-13T10:00:28Z,1442138429,2015,10,0,256.417,256.417,88.2902,-123.7664,1009.9,-0.2,-8.9,yes,yes,yes,300234062789420,ICEB,AWI-USIABP,unknown,North
2015-09-13T10:59:31Z,1442141971,2015,11,0,256.458,256.458,88.2904,-123.7858,1010.2,-0.2,-8.0,yes,yes,yes,300234062789420,ICEB,AWI-USIABP,unknown,North
2015-09-13T12:00:00Z,1442145600,2015,12,0,256.5,256.5,88.2902,-123.7862,1010.4,-0.2,-7.8,yes,yes,yes,300234062789420,ICEB,AWI-USIABP,unknown,North
2015-09-13T13:00:28Z,1442149229,2015,13,0,256.542,256.542,88.2894,-123.7722,1010.8,-0.2,-7.0,yes,yes,yes,300234062789420,ICEB,AWI-USIABP,unknown,North
2015-09-13T13:59:31Z,1442152771,2015,14,0,256.583,256.583,88.288,-123.7572,1010.9,-0.2,-5.9,yes,yes,yes,300234062789420,ICEB,AWI-USIABP,unknown,North
2015-09-13T15:00:00Z,1442156400,2015,15,0,256.625,256.625,88.2862,-123.7546,1011.1,-0.2,-5.2,yes,yes,yes,300234062789420,ICEB,AWI-USIABP,unknown,North
2015-09-13T16:00:28Z,1442160029,2015,16,0,256.667,256.667,88.2844,-123.7796,1011.4,-0.2,-5.2,yes,yes,yes,300234062789420,ICEB,AWI-USIABP,unknown,North
2015-09-13T16:59:31Z,1442163571,2015,17,0,256.708,256.708,88.2828,-123.8238,1011.8,-0.2,-5.1,yes,yes,yes,300234062789420,ICEB,AWI-USIABP,unknown,North
2015-09-13T18:00:00Z,1442167200,2015,18,0,256.75,256.75,88.2814,-123.8826,1012.2,-0.2,-4.8,yes,yes,yes,300234062789420,ICEB,AWI-USIABP,unknown,North
2015-09-13T19:00:28Z,1442170829,2015,19,0,256.792,256.792,88.2808,-123.952,1012.6,-0.2,-4.7,yes,yes,yes,300234062789420,ICEB,AWI-USIABP,unknown,North
2015-09-13T19:59:31Z,1442174371,2015,20,0,256.833,256.833,88.2808,-124.019,1013.0,-0.2,-4.5,yes,yes,yes,300234062789420,ICEB,AWI-USIABP,unknown,North
2015-09-13T21:00:00Z,1442178000,2015,21,0,256.875,256.875,88.2816,-124.0684,1013.2,-0.2,-5.2,yes,yes,yes,300234062789420,ICEB,AWI-USIABP,unknown,North
2015-09-13T22:00:28Z,1442181629,2015,22,0,256.917,256.917,88.2826,-124.086,1013.6,-0.2,-6.8,yes,yes,yes,300234062789420,ICEB,AWI-USIABP,unknown,North
2015-09-13T22:59:31Z,1442185171,2015,23,0,256.958,256.958,88.2834,-124.072,1013.6,-0.2,-5.5,yes,yes,yes,300234062789420,ICEB,AWI-USIABP,unknown,North
2015-09-14T00:00:00Z,1442188800,2015,0,0,257.0,257.0,88.2836,-124.0356,1013.7,-0.2,-5.7,yes,yes,yes,300234062789420,ICEB,AWI-USIABP,unknown,North
2015-09-14T01:00:28Z,1442192429,2015,1,0,257.042,257.042,88.2828,-123.9894,1013.5,-0.2,-5.9,yes,yes,yes,300234062789420,ICEB,AWI-USIABP,unknown,North
2015-09-14T01:59:31Z,1442195971,2015,2,0,257.083,257.083,88.2808,-123.9572,1013.3,-0.2,-5.0,yes,yes,yes,300234062789420,ICEB,AWI-USIABP,unknown,North
2015-09-14T03:00:00Z,1442199600,2015,3,0,257.125,257.125,88.2782,-123.9422,1013.0,-0.2,-5.9,yes,yes,yes,300234062789420,ICEB,AWI-USIABP,unknown,North
2015-09-14T04:00:28Z,1442203229,2015,4,0,257.167,257.167,88.275,-123.946,1013.0,-0.2,-6.7,yes,yes,yes,300234062789420,ICEB,AWI-USIABP,unknown,North
2015-09-14T04:59:31Z,1442206771,2015,5,0,257.208,257.208,88.2714,-123.9714,1012.9,-0.2,-6.4,yes,yes,yes,300234062789420,ICEB,AWI-USIABP,unknown,North
2015-09-14T06:00:00Z,1442210400,2015,6,0,257.25,257.25,88.2678,-124.0232,1012.8,-0.2,-5.8,yes,yes,yes,300234062789420,ICEB,AWI-USIABP,unknown,North
2015-09-14T07:00:28Z,1442214029,2015,7,0,257.292,257.292,88.2646,-124.0884,1012.5,-0.2,-5.6,yes,yes,yes,300234062789420,ICEB,AWI-USIABP,unknown,North
2015-09-14T07:59:31Z,1442217571,2015,8,0,257.333,257.333,88.2616,-124.146,1012.2,-0.2,-5.4,yes,yes,yes,300234062789420,ICEB,AWI-USIABP,unknown,North
2015-09-14T09:00:00Z,1442221200,2015,9,0,257.375,257.375,88.2584,-124.1954,1012.1,-0.2,-5.4,yes,yes,yes,300234062789420,ICEB,AWI-USIABP,unknown,North
2015-09-14T10:00:28Z,1442224829,2015,10,0,257.417,257.417,88.2558,-124.2454,1011.9,-0.2,-6.9,yes,yes,yes,300234062789420,ICEB,AWI-USIABP,unknown,North
2015-09-14T10:59:31Z,1442228371,2015,11,0,257.458,257.458,88.2532,-124.278,1011.8,-0.2,-7.1,yes,yes,yes,300234062789420,ICEB,AWI-USIABP,unknown,North
2015-09-14T12:00:00Z,1442232000,2015,12,0,257.5,257.5,88.2504,-124.2858,1011.5,-0.2,-6.2,yes,yes,yes,300234062789420,ICEB,AWI-USIABP,unknown,North
2015-09-14T13:00:28Z,1442235629,2015,13,0,257.542,257.542,88.2474,-124.2766,1011.1,-0.2,-6.2,yes,yes,yes,300234062789420,ICEB,AWI-USIABP,unknown,North
2015-09-14T13:59:31Z,1442239171,2015,14,0,257.583,257.583,88.2438,-124.2676,1010.7,-0.2,-5.9,yes,yes,yes,300234062789420,ICEB,AWI-USIABP,unknown,North
2015-09-14T15:00:00Z,1442242800,2015,15,0,257.625,257.625,88.2402,-124.2644,1010.6,-0.2,-9.0,yes,yes,yes,300234062789420,ICEB,AWI-USIABP,unknown,North
2015-09-14T16:00:28Z,1442246429,2015,16,0,257.667,257.667,88.2368,-124.2714,1010.6,-0.2,-9.9,yes,yes,yes,300234062789420,ICEB,AWI-USIABP,unknown,North
2015-09-14T16:59:31Z,1442249971,2015,17,0,257.708,257.708,88.2336,-124.287,1010.3,-0.2,-8.6,yes,yes,yes,300234062789420,ICEB,AWI-USIABP,unknown,North
2015-09-14T18:00:00Z,1442253600,2015,18,0,257.75,257.75,88.231,-124.3162,1010.1,-0.2,-8.2,yes,yes,yes,300234062789420,ICEB,AWI-USIABP,unknown,North
2015-09-14T19:00:28Z,1442257229,2015,19,0,257.792,257.792,88.229,-124.3518,1009.9,-0.2,-7.1,yes,yes,yes,300234062789420,ICEB,AWI-USIABP,unknown,North
2015-09-14T19:59:31Z,1442260771,2015,20,0,257.833,257.833,88.2276,-124.3842,1009.5,-0.2,-7.1,yes,yes,yes,300234062789420,ICEB,AWI-USIABP,unknown,North
2015-09-14T21:00:00Z,1442264400,2015,21,0,257.875,257.875,88.227,-124.4022,1009.2,-0.2,-10.0,yes,yes,yes,300234062789420,ICEB,AWI-USIABP,unknown,North
2015-09-14T22:00:28Z,1442268029,2015,22,0,257.917,257.917,88.2266,-124.4016,1009.1,-0.2,-12.1,yes,yes,yes,300234062789420,ICEB,AWI-USIABP,unknown,North
2015-09-14T22:59:31Z,1442271571,2015,23,0,257.958,257.958,88.2264,-124.3812,1009.0,-0.2,-13.1,yes,yes,yes,300234062789420,ICEB,AWI-USIABP,unknown,North
2015-09-15T00:00:00Z,1442275200,2015,0,0,258.0,258.0,88.226,-124.345,1008.6,-0.2,-15.3,yes,yes,yes,300234062789420,ICEB,AWI-USIABP,unknown,North
2015-09-15T01:00:28Z,1442278829,2015,1,0,258.042,258.042,88.2248,-124.297,1008.4,-0.2,-16.7,yes,yes,yes,300234062789420,ICEB,AWI-USIABP,unknown,North
2015-09-15T01:59:31Z,1442282371,2015,2,0,258.083,258.083,88.2232,-124.2472,1008.2,-0.2,-14.7,yes,yes,yes,300234062789420,ICEB,AWI-USIABP,unknown,North
2015-09-15T03:00:00Z,1442286000,2015,3,0,258.125,258.125,88.221,-124.2066,1007.8,-0.2,-13.3,yes,yes,yes,300234062789420,ICEB,AWI-USIABP,unknown,North
2015-09-15T04:00:28Z,1442289629,2015,4,0,258.167,258.167,88.2186,-124.1794,1007.6,-0.2,-11.7,yes,yes,yes,300234062789420,ICEB,AWI-USIABP,unknown,North
2015-09-15T04:59:31Z,1442293171,2015,5,0,258.208,258.208,88.2164,-124.1678,1007.1,-0.2,-10.8,yes,yes,yes,300234062789420,ICEB,AWI-USIABP,unknown,North
2015-09-15T06:00:00Z,1442296800,2015,6,0,258.25,258.25,88.2144,-124.1676,1006.7,-0.2,-10.7,yes,yes,yes,300234062789420,ICEB,AWI-USIABP,unknown,North
2015-09-15T07:00:28Z,1442300429,2015,7,0,258.292,258.292,88.2134,-124.1732,1006.5,-0.2,-10.8,yes,yes,yes,300234062789420,ICEB,AWI-USIABP,unknown,North
2015-09-15T07:59:31Z,1442303971,2015,8,0,258.333,258.333,88.2128,-124.1712,1006.1,-0.2,-10.3,yes,yes,yes,300234062789420,ICEB,AWI-USIABP,unknown,North
2015-09-15T09:00:00Z,1442307600,2015,9,0,258.375,258.375,88.2128,-124.1584,1005.8,-0.2,-10.0,yes,yes,yes,300234062789420,ICEB,AWI-USIABP,unknown,North
2015-09-15T10:00:28Z,1442311229,2015,10,0,258.417,258.417,88.213,-124.129,1005.5,-0.2,-9.9,yes,yes,yes,300234062789420,ICEB,AWI-USIABP,unknown,North
2015-09-15T10:59:31Z,1442314771,2015,11,0,258.458,258.458,88.2136,-124.0856,1005.3,-0.2,-9.7,yes,yes,yes,300234062789420,ICEB,AWI-USIABP,unknown,North
2015-09-15T12:00:00Z,1442318400,2015,12,0,258.5,258.5,88.214,-124.0278,1004.9,-0.2,-9.5,yes,yes,yes,300234062789420,ICEB,AWI-USIABP,unknown,North
2015-09-15T13:00:28Z,1442322029,2015,13,0,258.542,258.542,88.214,-123.9612,1004.7,-0.3,-9.5,yes,yes,yes,300234062789420,ICEB,AWI-USIABP,unknown,North
2015-09-15T13:59:31Z,1442325571,2015,14,0,258.583,258.583,88.214,-123.8928,1004.3,-0.3,-9.5,yes,yes,yes,300234062789420,ICEB,AWI-USIABP,unknown,North
2015-09-15T15:00:00Z,1442329200,2015,15,0,258.625,258.625,88.2138,-123.8374,1003.9,-0.3,-9.4,yes,yes,yes,300234062789420,ICEB,AWI-USIABP,unknown,North
2015-09-15T16:00:28Z,1442332829,2015,16,0,258.667,258.667,88.2136,-123.7988,1003.7,-0.3,-9.3,yes,yes,yes,300234062789420,ICEB,AWI-USIABP,unknown,North
2015-09-15T16:59:31Z,1442336371,2015,17,0,258.708,258.708,88.214,-123.779,1003.9,-0.3,-9.4,yes,yes,yes,300234062789420,ICEB,AWI-USIABP,unknown,North
2015-09-15T18:00:00Z,1442340000,2015,18,0,258.75,258.75,88.215,-123.7746,1003.8,-0.3,-9.3,yes,yes,yes,300234062789420,ICEB,AWI-USIABP,unknown,North
2015-09-15T19:00:28Z,1442343629,2015,19,0,258.792,258.792,88.2172,-123.7744,1003.7,-0.3,-9.3,yes,yes,yes,300234062789420,ICEB,AWI-USIABP,unknown,North
2015-09-15T19:59:31Z,1442347171,2015,20,0,258.833,258.833,88.2198,-123.7742,1003.6,-0.3,-9.2,yes,yes,yes,300234062789420,ICEB,AWI-USIABP,unknown,North
2015-09-15T21:00:00Z,1442350800,2015,21,0,258.875,258.875,88.2228,-123.772,1003.8,-0.3,-9.4,yes,yes,yes,300234062789420,ICEB,AWI-USIABP,unknown,North
2015-09-15T22:00:28Z,1442354429,2015,22,0,258.917,258.917,88.226,-123.7632,1004.0,-0.3,-9.4,yes,yes,yes,300234062789420,ICEB,AWI-USIABP,unknown,North
2015-09-15T22:59:31Z,1442357971,2015,23,0,258.958,258.958,88.2292,-123.7376,1004.1,-0.3,-9.6,yes,yes,yes,300234062789420,ICEB,AWI-USIABP,unknown,North
2015-09-16T00:00:00Z,1442361600,2015,0,0,259.0,259.0,88.232,-123.6988,1003.9,-0.3,-9.5,yes,yes,yes,300234062789420,ICEB,AWI-USIABP,unknown,North
2015-09-16T01:00:28Z,1442365229,2015,1,0,259.042,259.042,88.2338,-123.6564,1003.9,-0.3,-8.9,yes,yes,yes,300234062789420,ICEB,AWI-USIABP,unknown,North
2015-09-16T01:59:31Z,1442368771,2015,2,0,259.083,259.083,88.2348,-123.6214,1004.0,-0.3,-8.9,yes,yes,yes,300234062789420,ICEB,AWI-USIABP,unknown,North
2015-09-16T03:00:00Z,1442372400,2015,3,0,259.125,259.125,88.235,-123.605,1004.2,-0.3,-8.9,yes,yes,yes,300234062789420,ICEB,AWI-USIABP,unknown,North
2015-09-16T04:00:28Z,1442376029,2015,4,0,259.167,259.167,88.235,-123.6212,1004.4,-0.3,-8.8,yes,yes,yes,300234062789420,ICEB,AWI-USIABP,unknown,North
2015-09-16T04:59:31Z,1442379571,2015,5,0,259.208,259.208,88.2348,-123.6688,1004.6,-0.3,-8.7,yes,yes,yes,300234062789420,ICEB,AWI-USIABP,unknown,North
2015-09-16T06:00:00Z,1442383200,2015,6,0,259.25,259.25,88.2352,-123.7404,1004.7,-0.3,-8.9,yes,yes,yes,300234062789420,ICEB,AWI-USIABP,unknown,North
2015-09-16T07:00:28Z,1442386829,2015,7,0,259.292,259.292,88.2364,-123.8182,1004.8,-0.3,-8.8,yes,yes,yes,300234062789420,ICEB,AWI-USIABP,unknown,North
2015-09-16T07:59:31Z,1442390371,2015,8,0,259.333,259.333,88.238,-123.8894,1004.9,-0.3,-8.7,yes,yes,yes,300234062789420,ICEB,AWI-USIABP,unknown,North
2015-09-16T09:00:00Z,1442394000,2015,9,0,259.375,259.375,88.24,-123.9488,1005.1,-0.3,-10.6,yes,yes,yes,300234062789420,ICEB,AWI-USIABP,unknown,North
2015-09-16T10:00:28Z,1442397629,2015,10,0,259.417,259.417,88.2422,-123.9836,1005.4,-0.3,-14.5,yes,yes,yes,300234062789420,ICEB,AWI-USIABP,unknown,North
2015-09-16T10:59:31Z,1442401171,2015,11,0,259.458,259.458,88.2438,-124.0006,1005.7,-0.3,-11.9,yes,yes,yes,300234062789420,ICEB,AWI-USIABP,unknown,North
2015-09-16T12:00:00Z,1442404800,2015,12,0,259.5,259.5,88.245,-124.0024,1005.9,-0.3,-12.0,yes,yes,yes,300234062789420,ICEB,AWI-USIABP,unknown,North
2015-09-16T13:00:28Z,1442408429,2015,13,0,259.542,259.542,88.2452,-123.997,1006.0,-0.3,-12.8,yes,yes,yes,300234062789420,ICEB,AWI-USIABP,unknown,North
2015-09-16T13:59:31Z,1442411971,2015,14,0,259.583,259.583,88.245,-123.9812,1005.8,-0.3,-13.0,yes,yes,yes,300234062789420,ICEB,AWI-USIABP,unknown,North
2015-09-16T15:00:00Z,1442415600,2015,15,0,259.625,259.625,88.244,-123.9646,1005.8,-0.3,-15.8,yes,yes,yes,300234062789420,ICEB,AWI-USIABP,unknown,North
2015-09-16T16:00:28Z,1442419229,2015,16,0,259.667,259.667,88.2424,-123.96,1005.7,-0.3,-18.0,yes,yes,yes,300234062789420,ICEB,AWI-USIABP,unknown,North
2015-09-16T16:59:31Z,1442422771,2015,17,0,259.708,259.708,88.2404,-123.9716,1005.5,-0.3,-16.1,yes,yes,yes,300234062789420,ICEB,AWI-USIABP,unknown,North
2015-09-16T18:00:00Z,1442426400,2015,18,0,259.75,259.75,88.238,-123.9968,1005.2,-0.3,-14.5,yes,yes,yes,300234062789420,ICEB,AWI-USIABP,unknown,North
2015-09-16T19:00:28Z,1442430029,2015,19,0,259.792,259.792,88.2352,-124.0254,1004.6,-0.3,-13.2,yes,yes,yes,300234062789420,ICEB,AWI-USIABP,unknown,North
2015-09-16T19:59:31Z,1442433571,2015,20,0,259.833,259.833,88.2322,-124.0556,1004.2,-0.3,-10.8,yes,yes,yes,300234062789420,ICEB,AWI-USIABP,unknown,North
2015-09-16T21:00:00Z,1442437200,2015,21,0,259.875,259.875,88.2288,-124.0864,1003.5,-0.3,-9.6,yes,yes,yes,300234062789420,ICEB,AWI-USIABP,unknown,North
2015-09-16T22:00:28Z,1442440829,2015,22,0,259.917,259.917,88.2258,-124.113,1003.1,-0.3,-8.5,yes,yes,yes,300234062789420,ICEB,AWI-USIABP,unknown,North
2015-09-16T22:59:31Z,1442444371,2015,23,0,259.958,259.958,88.223,-124.1374,1002.5,-0.3,-6.8,yes,yes,yes,300234062789420,ICEB,AWI-USIABP,unknown,North
2015-09-17T00:00:00Z,1442448000,2015,0,0,260.0,260.0,88.2206,-124.1832,1002.1,-0.3,-3.6,yes,yes,yes,300234062789420,ICEB,AWI-USIABP,unknown,North
2015-09-17T01:00:28Z,1442451629,2015,1,0,260.042,260.042,88.2186,-124.2578,1001.7,-0.3,-3.0,yes,yes,yes,300234062789420,ICEB,AWI-USIABP,unknown,North
2015-09-17T01:59:31Z,1442455171,2015,2,0,260.083,260.083,88.2166,-124.344,1001.4,-0.3,-3.0,yes,yes,yes,300234062789420,ICEB,AWI-USIABP,unknown,North
2015-09-17T03:00:00Z,1442458800,2015,3,0,260.125,260.125,88.2144,-124.4542,1001.4,-0.3,-3.1,yes,yes,yes,300234062789420,ICEB,AWI-USIABP,unknown,North
2015-09-17T04:00:28Z,1442462429,2015,4,0,260.167,260.167,88.2128,-124.587,1001.3,-0.3,-3.5,yes,yes,yes,300234062789420,ICEB,AWI-USIABP,unknown,North
2015-09-17T04:59:31Z,1442465971,2015,5,0,260.208,260.208,88.2114,-124.7328,1001.4,-0.3,-4.1,yes,yes,yes,300234062789420,ICEB,AWI-USIABP,unknown,North
2015-09-17T06:00:00Z,1442469600,2015,6,0,260.25,260.25,88.2108,-124.8776,1001.5,-0.3,-4.3,yes,yes,yes,300234062789420,ICEB,AWI-USIABP,unknown,North
2015-09-17T07:00:28Z,1442473229,2015,7,0,260.292,260.292,88.211,-125.007,1001.6,-0.3,-4.6,yes,yes,yes,300234062789420,ICEB,AWI-USIABP,unknown,North
2015-09-17T07:59:31Z,1442476771,2015,8,0,260.333,260.333,88.2122,-125.0982,1001.6,-0.3,-5.1,yes,yes,yes,300234062789420,ICEB,AWI-USIABP,unknown,North
2015-09-17T09:00:00Z,1442480400,2015,9,0,260.375,260.375,88.2138,-125.1462,1001.7,-0.3,-5.2,yes,yes,yes,300234062789420,ICEB,AWI-USIABP,unknown,North
2015-09-17T10:00:28Z,1442484029,2015,10,0,260.417,260.417,88.2158,-125.1554,1001.9,-0.3,-5.8,yes,yes,yes,300234062789420,ICEB,AWI-USIABP,unknown,North
2015-09-17T10:59:31Z,1442487571,2015,11,0,260.458,260.458,88.2176,-125.131,1002.1,-0.3,-6.8,yes,yes,yes,300234062789420,ICEB,AWI-USIABP,unknown,North
2015-09-17T12:00:00Z,1442491200,2015,12,0,260.5,260.5,88.219,-125.0808,1002.3,-0.3,-10.7,yes,yes,yes,300234062789420,ICEB,AWI-USIABP,unknown,North
2015-09-17T13:00:28Z,1442494829,2015,13,0,260.542,260.542,88.22,-125.0184,1002.7,-0.3,-15.1,yes,yes,yes,300234062789420,ICEB,AWI-USIABP,unknown,North
2015-09-17T13:59:31Z,1442498371,2015,14,0,260.583,260.583,88.221,-124.9602,1003.1,-0.3,-17.1,yes,yes,yes,300234062789420,ICEB,AWI-USIABP,unknown,North
2015-09-17T15:00:00Z,1442502000,2015,15,0,260.625,260.625,88.2216,-124.9188,1003.5,-0.3,-17.7,yes,yes,yes,300234062789420,ICEB,AWI-USIABP,unknown,North
2015-09-17T16:00:28Z,1442505629,2015,16,0,260.667,260.667,88.2222,-124.8966,1003.9,-0.3,-18.8,yes,yes,yes,300234062789420,ICEB,AWI-USIABP,unknown,North
2015-09-17T16:59:31Z,1442509171,2015,17,0,260.708,260.708,88.223,-124.8942,1004.1,-0.3,-19.2,yes,yes,yes,300234062789420,ICEB,AWI-USIABP,unknown,North
2015-09-17T18:00:00Z,1442512800,2015,18,0,260.75,260.75,88.2242,-124.9044,1004.6,-0.3,-18.6,yes,yes,yes,300234062789420,ICEB,AWI-USIABP,unknown,North
2015-09-17T19:00:28Z,1442516429,2015,19,0,260.792,260.792,88.226,-124.921,1004.8,-0.3,-17.4,yes,yes,yes,300234062789420,ICEB,AWI-USIABP,unknown,North
2015-09-17T19:59:31Z,1442519971,2015,20,0,260.833,260.833,88.2278,-124.9292,1004.9,-0.3,-17.1,yes,yes,yes,300234062789420,ICEB,AWI-USIABP,unknown,North
2015-09-17T21:00:00Z,1442523600,2015,21,0,260.875,260.875,88.2296,-124.9282,1005.0,-0.3,-16.4,yes,yes,yes,300234062789420,ICEB,AWI-USIABP,unknown,North
2015-09-17T22:00:28Z,1442527229,2015,22,0,260.917,260.917,88.2314,-124.928,1005.1,-0.3,-12.8,yes,yes,yes,300234062789420,ICEB,AWI-USIABP,unknown,North
2015-09-17T22:59:31Z,1442530771,2015,23,0,260.958,260.958,88.233,-124.9276,1005.2,-0.4,-10.5,yes,yes,yes,300234062789420,ICEB,AWI-USIABP,unknown,North
2015-09-18T00:00:00Z,1442534400,2015,0,0,261.0,261.0,88.2344,-124.926,1005.1,-0.4,-9.6,yes,yes,yes,300234062789420,ICEB,AWI-USIABP,unknown,North
2015-09-18T01:00:28Z,1442538029,2015,1,0,261.042,261.042,88.2356,-124.9306,1005.1,-0.4,-9.4,yes,yes,yes,300234062789420,ICEB,AWI-USIABP,unknown,North
2015-09-18T01:59:31Z,1442541571,2015,2,0,261.083,261.083,88.2368,-124.9412,1005.0,-0.4,-9.7,yes,yes,yes,300234062789420,ICEB,AWI-USIABP,unknown,North
2015-09-18T03:00:00Z,1442545200,2015,3,0,261.125,261.125,88.2374,-124.9662,1005.1,-0.4,-11.3,yes,yes,yes,300234062789420,ICEB,AWI-USIABP,unknown,North
2015-09-18T04:00:28Z,1442548829,2015,4,0,261.167,261.167,88.2376,-125.0158,1005.0,-0.4,-12.7,yes,yes,yes,300234062789420,ICEB,AWI-USIABP,unknown,North
2015-09-18T04:59:31Z,1442552371,2015,5,0,261.208,261.208,88.2378,-125.084,1005.0,-0.4,-12.2,yes,yes,yes,300234062789420,ICEB,AWI-USIABP,unknown,North
2015-09-18T06:00:00Z,1442556000,2015,6,0,261.25,261.25,88.2378,-125.176,1004.7,-0.4,-10.9,yes,yes,yes,300234062789420,ICEB,AWI-USIABP,unknown,North
2015-09-18T07:00:28Z,1442559629,2015,7,0,261.292,261.292,88.2378,-125.2814,1004.5,-0.4,-10.6,yes,yes,yes,300234062789420,ICEB,AWI-USIABP,unknown,North
2015-09-18T07:59:31Z,1442563171,2015,8,0,261.333,261.333,88.238,-125.3998,1004.1,-0.4,-9.3,yes,yes,yes,300234062789420,ICEB,AWI-USIABP,unknown,North
2015-09-18T09:00:00Z,1442566800,2015,9,0,261.375,261.375,88.2384,-125.5178,1003.9,-0.4,-9.1,yes,yes,yes,300234062789420,ICEB,AWI-USIABP,unknown,North
2015-09-18T10:00:28Z,1442570429,2015,10,0,261.417,261.417,88.2388,-125.6246,1003.7,-0.4,-9.4,yes,yes,yes,300234062789420,ICEB,AWI-USIABP,unknown,North
2015-09-18T10:59:31Z,1442573971,2015,11,0,261.458,261.458,88.2392,-125.7098,1003.6,-0.4,-8.7,yes,yes,yes,300234062789420,ICEB,AWI-USIABP,unknown,North
2015-09-18T12:00:00Z,1442577600,2015,12,0,261.5,261.5,88.2402,-125.7658,1003.2,-0.4,-8.7,yes,yes,yes,300234062789420,ICEB,AWI-USIABP,unknown,North
2015-09-18T13:00:28Z,1442581229,2015,13,0,261.542,261.542,88.241,-125.7938,1003.1,-0.4,-11.0,yes,yes,yes,300234062789420,ICEB,AWI-USIABP,unknown,North
2015-09-18T13:59:31Z,1442584771,2015,14,0,261.583,261.583,88.2416,-125.8066,1003.0,-0.4,-9.8,yes,yes,yes,300234062789420,ICEB,AWI-USIABP,unknown,North
2015-09-18T15:00:00Z,1442588400,2015,15,0,261.625,261.625,88.2416,-125.8272,1002.9,-0.4,-7.9,yes,yes,yes,300234062789420,ICEB,AWI-USIABP,unknown,North
2015-09-18T16:00:28Z,1442592029,2015,16,0,261.667,261.667,88.2418,-125.8436,1002.9,-0.4,-7.4,yes,yes,yes,300234062789420,ICEB,AWI-USIABP,unknown,North
2015-09-18T16:59:31Z,1442595571,2015,17,0,261.708,261.708,88.2434,-125.845,1003.0,-0.4,-7.4,yes,yes,yes,300234062789420,ICEB,AWI-USIABP,unknown,North
2015-09-18T18:00:00Z,1442599200,2015,18,0,261.75,261.75,88.2466,-125.841,1003.4,-0.4,-10.9,yes,yes,yes,300234062789420,ICEB,AWI-USIABP,unknown,North
2015-09-18T19:00:28Z,1442602829,2015,19,0,261.792,261.792,88.2506,-125.8484,1004.2,-0.4,-11.9,yes,yes,yes,300234062789420,ICEB,AWI-USIABP,unknown,North
2015-09-18T19:59:31Z,1442606371,2015,20,0,261.833,261.833,88.2562,-125.8582,1004.7,-0.4,-11.0,yes,yes,yes,300234062789420,ICEB,AWI-USIABP,unknown,North